Location: Austin, TX
(30.3000°N, 97.7500°W)
Time: 05:23:13
(UTC-05:00)

Daily predictions for brighter satellites

Satellite Brightness Start Highest point End
(mag) Time Altitude Azimuth Time Altitude Azimuth Time Altitude Azimuth
USA 215 3.9 04:40:10 10° ESE 04:46:24 49° NE 04:48:46 35° N
ADEOS Rocket 4.4 04:41:06 10° NNE 04:47:11 37° E 04:51:30 16° SSE
FALCON 9 R/B 2.9 04:54:19 64° SE 04:54:19 64° SE 05:08:19 10° ENE
ATLAS 5 CENTAUR R/B 3.9 04:59:18 26° SSE 04:59:18 26° SSE 05:01:59 10° SSE
CZ-3A R/B 3.9 04:59:44 42° SSW 05:01:32 45° S 05:06:25 10° ESE
CZ-4B R/B 3.3 05:03:04 10° NNE 05:08:27 73° E 05:08:27 73° E
Cosmos 2227 4.5 05:10:25 59° SSE 05:11:10 65° ESE 05:16:52 10° NNE
NOSS 3-2 (C) 4.0 05:11:48 62° SW 05:11:48 62° SW 05:19:23 10° SSE
Cosmos 1937 Rocket 4.0 05:16:20 52° N 05:16:20 52° N 05:20:18 10° NNE
Cosmos 724 4.4 05:19:47 19° NNW 05:24:26 84° ENE 05:30:37 10° SSE
Cosmos 2098 Rocket 4.4 05:23:27 10° N 05:27:57 49° E 05:33:38 10° SSE
SL-16 R/B 2.0 05:22:42 10° NNW 05:28:24 87° WSW 05:34:03 10° SSE
Okean O Rocket 3.8 05:26:54 10° N 05:27:49 16° N 05:27:49 16° N
Meteor 2-9 Rocket 4.1 05:25:34 10° N 05:31:17 76° W 05:37:06 10° S
Cosmos 1602 Rocket 4.1 05:29:29 29° SSE 05:31:37 59° E 05:35:57 10° NNE
Cosmos 2297 Rocket 4.3 05:43:09 11° NNW 05:43:09 11° NNW 05:43:35 10° NNW
PSLV R/B 3.4 05:36:15 10° NNE 05:40:34 84° ESE 05:41:42 49° S
CZ-4B R/B 4.3 05:38:18 10° N 05:40:53 30° NNW 05:40:53 30° NNW
Cosmos 2228 2.9 05:39:14 10° N 05:43:38 89° W 05:47:57 10° S
BREEZE-M DEB (TANK) 3.9 05:47:01 46° WSW 05:48:27 75° NNW 06:08:38 10° NE
MOS 1 Rocket 4.3 05:45:05 10° NNE 05:50:00 53° E 05:55:09 10° S
Delta 142 4.1 06:00:17 36° WSW 06:01:34 45° SSW 06:05:44 10° SE
Cosmos 2100 Rocket 4.3 05:56:41 10° NNW 06:02:28 41° W 06:08:19 10° SSW
Cosmos 1812 Rocket 4.2 05:58:35 10° N 06:02:58 57° E 06:07:22 10° SSE
COBE Rocket 3.9 05:59:33 10° NNE 06:04:15 74° E 06:08:52 10° S
OAO 2 Rocket 3.9 06:05:13 29° WNW 06:07:43 52° N 06:12:55 10° ENE
Cosmos 1802 Rocket 4.1 06:02:00 10° NNW 06:07:49 47° W 06:13:37 10° SSW
ASTRO F (AKARI) 4.2 06:07:29 10° S 06:10:35 60° W 06:13:47 10° NNW
ADEOS II 2.1 06:06:14 10° N 06:11:21 54° WNW 06:16:28 10° SSW
Cosmos 2263 Rocket 2.9 06:05:58 10° S 06:11:23 56° ESE 06:16:48 10° NNE
Cosmos 2061 Rocket 4.4 06:05:58 10° NNW 06:11:45 38° W 06:17:35 10° SSW
Cosmos 1725 Rocket 3.9 06:06:15 10° N 06:12:32 84° W 06:18:44 10° S
GOES 2 Rocket 4.2 06:11:57 26° WSW 06:15:03 55° SSW 06:22:10 10° ESE
Cosmos 1603 3.7 06:10:36 10° NNW 06:16:20 86° ENE 06:21:59 10° SSE
USA 116 4.2 06:15:43 10° S 06:20:48 69° WSW 06:25:26 10° NNW
Meteor 2-17 Rocket 4.5 06:15:28 10° N 06:21:38 87° E 06:27:47 10° S
Tiangong 1 3.7 06:25:30 10° NNW 06:27:11 14° NNE 06:28:52 10° NE
Ariane Rocket 3.8 06:24:11 10° NNE 06:29:12 55° E 06:34:11 10° S
USA 215 3.8 06:23:29 10° S 06:29:24 36° SW 06:35:19 10° WNW
Cosmos 1825 Rocket 3.5 06:26:38 10° S 06:31:02 89° WNW 06:35:25 10° N
COSMO-SKYMED 1 4.1 06:27:01 10° SE 06:31:03 39° ENE 06:35:06 10° N
Thor Agena Rocket 4.1 06:26:17 10° SSW 06:31:07 36° W 06:35:59 10° NNW
ADEOS Rocket 4.0 06:26:49 10° N 06:32:24 28° WNW 06:37:33 10° WSW
Cosmos 1340 3.0 06:29:57 10° SSW 06:33:34 42° W 06:37:11 10° N
SJ-6F 4.4 06:31:38 10° N 06:35:49 84° WNW 06:40:00 10° SSW
Cosmos 1174 3.6 06:33:44 10° NW 06:36:52 50° WSW 06:40:31 10° S
Meteor 1-31 Rocket 3.2 06:33:39 10° N 06:37:22 42° WNW 06:41:05 10° SSW
Cosmos 372 Rocket 3.9 06:34:00 10° SSW 06:39:05 77° WNW 06:44:12 10° NNE
Okean-O 3.8 06:38:20 10° NNW 06:41:48 23° WNW 06:45:15 10° WSW
CENTAUR R/B 3.3 06:38:10 10° NW 06:45:57 52° WSW 06:53:56 10° S
BREEZE-M DEB (TANK) 3.5 06:46:52 10° NNW 06:49:35 47° NE 06:55:24 10° SE
Cosmos 1125 Rocket 4.3 06:51:40 10° SW 06:56:11 30° WNW 07:00:44 10° N
Cosmos 1842 3.2 06:57:39 10° SSW 07:01:29 64° W 07:05:21 10° N
Delta 2 Rocket 4.1 06:58:15 10° W 07:01:38 29° SSW 07:04:44 10° SSE
Cosmos 1953 Rocket 3.8 07:00:15 10° SSW 07:04:32 48° W 07:08:53 10° N
